Powered by GoogleTranslate

Occupational Safety and Health Administration OSHA

Alert: Due to routine maintenance on the OSHA website, some pages may be temporarily unavailable.
To report an emergency, file a complaint with OSHA or ask a safety and health question, call 1-800-321-6742 (OSHA).

Accident Search Results

Description, Abstract, KeywordSICNAICSDate RangeOfficeInsp Nr
Keyword: "Electrician"AllAllAllAllAll

By Date

Results 161 - 180 of 1664
Result Page: ... 4 5 6 7 8 9 10 11 12 13 ...
  # Summary Nr Event Date Report ID Fat SIC Event Description
161 66409.015 07/22/2014 0728500 X Employee Falls From Bridge And Dies
162 60769.015 04/13/2014 0626300 X One Employee Killed, One Injured In Electrical Fire
163 201623907 04/07/2014 1054116   1731 Worker Sustains Concussion In Fall Through Ceiling
164 202558094 03/19/2014 0950631   1731 Two Workers Are Burned In Electric Arc Flash
165 200536464 03/05/2014 0751910 X 1731 Electrical Foreman Is Electrocuted
166 202720348 03/01/2014 0950633   1731 Electrician Apprentice Incurs Partial Amputation Of Finger
167 202557609 02/06/2014 0950631   1731 Electrician Supervisor Incurs Fractures In Fall From Ladder
168 202532537 12/12/2013 0950664   2911 Falling Power Panel Crushes Electrician'S Toes
169 200376648 12/11/2013 0454510   1731 Worker Is Burned In Arc Flash From Electric Panelboard
170 202479499 11/14/2013 0950644   1731 Electrical Worker Is Injured In 12 Ft Fall From A Ladder
171 202615183 11/05/2013 1054112 X 1522,1731 One Employee Is Electrocuted And Another Is Not Injured
172 202082426 09/30/2013 0453730   1731 Electrician Injured In An Arc Flash
173 202556627 09/30/2013 0950631 X 1623 Worker Is Electrocuted While Working In Electrical Vault
174 202556635 09/24/2013 0950631 X 1731 Employee Suffers Electrocution When Contact 480 Volt Current
175 202715603 09/13/2013 0950633 X 1731 Worker Contacts Energized Conductor And Is Electrocuted
176 202715538 09/06/2013 0950633 X 1731 Electrical Worker Is Killed While Pulling Wire
177 202658464 09/05/2013 0950643   1731 Electrical Worker Is Shocked While Installing Switch Gear
178 202615100 09/05/2013 1054111   1731,1541,4911 Worker Is Burned In Arc Blast When Bolt Contacts Live Elect
179 202458287 08/27/2013 0950647 X 2099 Employee Dies From Electrocution In Amp Test
180 200075463 08/23/2013 0453720   4911 Lineman Is Shocked When Rod Contacts High Voltage Line

Thank You for Visiting Our Website

You are exiting the Department of Labor's Web server.

The Department of Labor does not endorse, takes no responsibility for, and exercises no control over the linked organization or its views, or contents, nor does it vouch for the accuracy or accessibility of the information contained on the destination server. The Department of Labor also cannot authorize the use of copyrighted materials contained in linked Web sites. Users must request such authorization from the sponsor of the linked Web site. Thank you for visiting our site. Please click the button below to continue.

Close